Location: Moscow
(55.7500°N, 37.5830°E)
Time: 17:37:00
(UTC+03:00)

Vanguard 1 - Pass Details

Date: 30 November 2021
Orbit: 652 x 3830 km, 34.2° (Epoch: 22 January)

Event Time Altitude Azimuth Distance (km) Brightness Sun altitude
Rises 02:18:27 0° 233° (SW) 7,892 - -49.3°
Reaches altitude 10° 02:24:34 10° 226° (SW) 6,932 - -48.6°
Maximum altitude 02:43:32 35° 171° (S) 4,627 - -46.6°
Exits shadow 02:45:23 34° 163° (SSE) 4,551 13.1 -46.4°
Drops below altitude 10° 02:57:49 10° 114° (ESE) 5,267 14.0 -44.9°
Sets 03:01:38 0° 106° (ESE) 5,878 14.5 -44.5°
